Regional Weather Roundup
Issued by NWS Bismarck, ND

Home | Current Version | Previous Version | Text Only | Print | Product List | Glossary On
Versions: 1 2 3 4 5 6 7 8 9 10 11 12 13 14 15 16 17 18 19 20 21 22 23 24 25 26 27 28 29 30 31 32 33 34 35 36 37 38 39 40 41 42 43 44 45 46 47 48 49 50
000
ASUS43 KBIS 241120
RWRBIS

NWR BROADCAST TEXT
NATIONAL WEATHER SERVICE BISMARCK ND
600 AM CDT SUN MAY 24 2015

NOTE: "FAIR" INDICATES FEW OR NO CLOUDS BELOW 12,000 FEET WITH NO
SIGNIFICANT WEATHER AND/OR OBSTRUCTIONS TO VISIBILITY.


CITY           SKY/WX    TMP DP  RH WIND       PRES   REMARKS
WILLISTON      CLOUDY    46  41  82 CALM      30.08S
MINOT          PTCLDY    47  44  90 CALM      30.07F
MINOT AFB      PTCLDY    44  44  99 NW2       30.06F
BISMARCK       MOCLDY    51  50  96 E3        30.07S
DICKINSON      MOCLDY    47  45  93 E6        30.05S FOG
GARRISON         N/A     52  49  89 CALM      30.07F
HETTINGER ARPT CLOUDY    50  48  93 NE8       30.05S
JAMESTOWN      CLOUDY    51  49  92 CALM      30.07S
BEACH          FOG       39  39 100 N3        30.08S VSB<1/4
CARRINGTON     FAIR      50  50 100 N5        30.09S
CROSBY         FAIR      46  46 100 S7        30.09S
HARVEY         PTSUNNY   50  50 100 CALM      30.08S
HAZEN          CLOUDY    48  46  93 CALM      30.08S
LINTON         CLOUDY    54  54 100 E7        30.05S
MANDAN         CLOUDY    54  54 100 NE5       30.07S
OAKES            N/A     50  50 100 N5        30.04F
STANLEY        FAIR      43  43 100 CALM      30.09F FOG
TIOGA          FAIR      39  39 100 CALM      30.11F
WATFORD CITY   FAIR      41  41 100 CALM      30.06F
$$

CITY           SKY/WX    TMP DP  RH WIND       PRES   REMARKS
GRAND FORKS    PTCLDY    46  43  89 SE3       30.07F
GRAND FORKS AF CLEAR     44  42  93 W3        30.08S
DEVILS LAKE    CLEAR     46  43  87 CALM      30.07S
FARGO          CLOUDY    54  48  80 E3        30.07F
CANDO          FAIR      46  46 100 N5        30.08F FOG
CAVALIER       FAIR      50  46  87 CALM      30.07F
GRAFTON        FAIR      45  45 100 CALM      30.08F
LANGDON        FAIR      43  39  87 CALM      30.09S
ROLLA          FAIR      48  45  87 CALM      30.09F
WALHALLA         N/A     57  45  62 W5        30.07F
$$

CITY           SKY/WX    TMP DP  RH WIND       PRES   REMARKS
ABERDEEN       CLOUDY    55  49  80 N8        30.01F
MOBRIDGE       CLOUDY    56  52  86 NE3       30.00F
BUFFALO          N/A     51  50  96 NE10      29.96F
RAPID CITY     LGT RAIN  52  51  97 E13       29.95F FOG
GLASGOW        MOCLDY    46  40  79 N8        30.07F
SIDNEY         PTCLDY    46  43  87 CALM      30.08S
WOLF POINT     CLOUDY    46  42  86 CALM      30.09R
GLENDIVE       PTCLDY    45  43  93 N6        30.08S
MILES CITY     CLOUDY    52  50  93 NE10      30.03F
BAKER          CLOUDY    45  43  93 E8        30.06S
$$

CITY           SKY/WX    TMP DP  RH WIND       PRES   REMARKS
BILLINGS       CLOUDY    49  44  83 N8        30.04S
GREAT FALLS    FOG       44  43  96 CALM      30.09F VSB 1/2
REGINA         PTCLDY    43  34  70 W3        30.08S
ESTEVAN        PTCLDY    46  43  87 SW8G20    30.08S
$$




USA.gov is the U.S. government's official web portal to all federal, state and local government web resources and services.